Retour au catalogue

STARLINK-30528

ActifCommunicationsVLEO
NORAD 57967·PAYLOAD·🇺🇸 United States

Lancé Sep 30, 2023 depuis Cape Canaveral Space Force Station

Loading…

Prochains Passages (prochaines 24 heures)

TLE

FraisSource: CelesTrak SupGP

Époque: Sep 15, 2026, 02:45 UTC

1 57967C 23151D   26258.11506944  .00037743  00000+0  13670-2 0  2589
2 57967  43.0028 346.0653 0001755 265.6631 269.9194 15.27560067    17

Suivez STARLINK-30528 en temps réel avec AllMySat

Download on the App Store